Hourly Weather Roundup
Issued by NWS Central Illinois

Home | Current Version | Previous Version | Text Only | Print | Product List | Glossary On
Versions: 1 2 3 4 5 6 7 8 9 10 11 12 13 14 15 16 17 18 19 20 21 22 23 24 25 26 27 28 29 30 31 32 33 34 35 36 37 38 39 40 41 42 43 44 45 46 47 48 49 50
000
NZUS43 KILX 250010
HWRILX

AREA WEATHER ROUNDUP
NATIONAL WEATHER SERVICE, LINCOLN IL
700 PM CDT TUE MAY 24 2016


CITY           SKY/WX    TMP DP  RH WIND       PRES   REMARKS
BLOOMINGTON    CLOUDY    80  60  50 S13       29.98R HX  81
6HR MIN TEMP:  80; 6HR MAX TEMP:  86;

CHAMPAIGN      MOSUNNY   80  58  46 S18       29.98S HX  80
6HR MIN TEMP:  80; 6HR MAX TEMP:  88;

DANVILLE       SUNNY     80  54  41 S12       29.97S HX  80
6HR MIN TEMP:  80; 6HR MAX TEMP:  86;

DECATUR        PTSUNNY   79  62  56 S14       29.97S HX  80
6HR MIN TEMP:  79; 6HR MAX TEMP:  83;

EFFINGHAM      MOSUNNY   76  63  62 SE5       30.01S
FLORA          MOSUNNY   78  62  57 S10       30.00S HX  80
6HR MIN TEMP:  78; 6HR MAX TEMP:  84;

GALESBURG      PTSUNNY   80  61  52 S10       29.93R HX  81
JACKSONVILLE   CLOUDY    80  63  57 S10       29.94F HX  81
6HR MIN TEMP:  80; 6HR MAX TEMP:  84;

LACON          CLOUDY    81  60  48 S6        29.93R HX  81
6HR MIN TEMP:  81; 6HR MAX TEMP:  85;

LAWRENCEVILLE  MOSUNNY   80  56  43 S14       30.03S HX  80
6HR MIN TEMP:  80; 6HR MAX TEMP:  84;

LITCHFIELD     CLOUDY    76  64  67 S12       29.95F
$$


CITY           SKY/WX    TMP DP  RH WIND       PRES   REMARKS
LINCOLN        CLOUDY    82  63  52 S5        29.95S HX  83
6HR MIN TEMP:  82; 6HR MAX TEMP:  86;

MACOMB         CLOUDY    80  62  53 SW12      29.95S HX  81
MATTOON        MOSUNNY   77  58  51 S7        30.00R
6HR MIN TEMP:  76; 6HR MAX TEMP:  81;

MT CARMEL AP   CLOUDY    78  56  46 S8        30.02S
6HR MIN TEMP:  78; 6HR MAX TEMP:  83;

OLNEY-NOBLE AP CLOUDY    77  59  53 SE8       30.01F
PARIS          SUNNY     79  57  46 S9        30.02R HX  80
6HR MIN TEMP:  79; 6HR MAX TEMP:  85;

PEORIA         CLOUDY    80  61  52 S8        29.93S HX  81
6HR MIN TEMP:  80; 6HR MAX TEMP:  86;

PONTIAC        MOSUNNY   83  58  42 S14       29.96R HX  83
RANTOUL        CLOUDY    83  57  41 S14       29.98R HX  82
ROBINSON       SUNNY     75  58  55 S9        30.03R
6HR MIN TEMP:  75; 6HR MAX TEMP:  82;

SPRINGFIELD    CLOUDY    81  63  54 S10       29.95S HX  82
6HR MIN TEMP:  81; 6HR MAX TEMP:  85;

TAYLORVILLE    PTSUNNY   79  65  62 S8        29.96S HX  80
$$

...REGIONAL REPORTS...


CITY           SKY/WX    TMP DP  RH WIND       PRES   REMARKS
CHICAGO O`HARE PTSUNNY   84  49  29 S9        29.92R HX  82
KANKAKEE       MOSUNNY  N/A N/A N/A SW12G17   29.96R
MOLINE         CLOUDY    84  59  42 SW8       29.90R HX  84
MOUNT STERLING CLOUDY    76  66  70 SW6       29.94S
MOUNT VERNON   CLOUDY    75  63  64 SW9       29.99F
PITTSFIELD     CLOUDY    77  66  69 S7        29.96F
QUINCY         CLOUDY    77  64  64 S6        29.94F
ROCKFORD       CLOUDY    85  54  34 SW8       29.93R HX  83
$$


CITY           SKY/WX    TMP DP  RH WIND       PRES   REMARKS
BURLINGTON     MOSUNNY   80  63  55 SW10      29.92R HX  81
CEDAR RAPIDS   MOSUNNY   82  64  54 S10       29.89R HX  83
DES MOINES     MOSUNNY   82  58  43 S8        29.89R HX  82
KIRKSVILLE     MOSUNNY   75  66  73 SE7       29.97R
OTTUMWA        MOSUNNY   80  64  58 S10       29.91R HX  82
ST LOUIS       CLOUDY    74  63  68 VRB6      29.95S
$$


CITY           SKY/WX    TMP DP  RH WIND       PRES   REMARKS
TERRE HAUTE    SUNNY     78  55  44 S9        30.02S
EVANSVILLE     CLOUDY    78  56  46 S6        30.03F
INDIANAPOLIS   PTCLDY    77  54  44 SW10      30.02R
LAFAYETTE      SUNNY     80  51  36 SW7       29.99R HX  80
MADISON        PTSUNNY   81  60  48 VRB3      29.91F HX  82
MILWAUKEE      CLOUDY    72  60  66 NE7       29.92R
$$






USA.gov is the U.S. government's official web portal to all federal, state and local government web resources and services.